Location: Asheville, NC
(35.6000°N, 82.5500°W)
Time: 04:21:19
(UTC-05:00)

Vanguard 3 - Pass Details

Date: 08 December 2017
Orbit: 508 x 3264 km, 33.4° (Epoch: 17 January)

Event Time Altitude Azimuth Distance (km) Brightness Sun altitude
Rises 13:21:10 0° 225° (SW) 2,837 10.8 30.0°
Reaches altitude 10° 13:23:57 10° 208° (SSW) 1,779 10.4 29.8°
Maximum altitude 13:26:54 21° 157° (SSE) 1,167 9.0 29.6°
Drops below altitude 10° 13:29:47 10° 105° (ESE) 1,739 8.9 29.5°
Sets 13:32:28 0° 89° (E) 2,753 9.7 29.3°
